Regional Weather Roundup
Issued by NWS

Home | Current Version | Previous Version | Text Only | Print | Product List | Glossary On
Versions: 1 2 3 4 5 6 7 8 9 10 11 12 13 14 15 16 17 18 19 20 21 22 23 24 25 26 27 28 29 30 31 32 33 34 35 36 37 38 39 40 41 42 43 44 45 46 47 48 49 50
000
ASUS43 KDTX 241510
RWRMI
MICHIGAN HOURLY REGIONAL WEATHER ROUNDUP
NATIONAL WEATHER SERVICE DETROIT/PONTIAC MI
ISSUED BY NATIONAL WEATHER SERVICE GRAND RAPIDS MI
1100 AM EDT MON JUL 24 2017

NOTE: "FAIR" INDICATES FEW OR NO CLOUDS BELOW 12,000 FEET WITH NO
SIGNIFICANT WEATHER AND/OR OBSTRUCTION TO VISIBILITY.

MIZ047>049-052>055-059>063-066>070-074>076-081>083-241600-
SOUTHEAST LOWER MICHIGAN

CITY           SKY/WX    TMP DP  RH WIND       PRES   REMARKS
ADRIAN         CLOUDY    66  57  72 N14G24    29.97R
ALMA           CLOUDY    65  53  66 N15G23    30.01R
ANN ARBOR      PTSUNNY   67  57  70 N14       29.95S
BAD AXE        CLOUDY    61  58  90 N12G21    29.94S
DETROIT CITY   CLOUDY    68  56  65 NW12      29.93R
DETROIT        CLOUDY    69  58  67 N12       29.93R
FLINT          CLOUDY    65  56  72 N15       29.96S
GROSSE ILE     MOSUNNY   71  57  62 N13G21    29.92S
HILLSDALE      CLOUDY    66  55  68 N10G18    29.97S
HOWELL         CLOUDY    65  57  73 N8        29.97S

CITY           SKY/WX    TMP DP  RH WIND       PRES   REMARKS
JACKSON        CLOUDY    64  55  72 N7        29.99R
LANSING        CLOUDY    65  53  65 N15G23    29.99S
MASON          CLOUDY    65  56  73 N9G18     29.98S
MONROE         CLOUDY    67  58  72 N9        29.93R
MT. CLEMENS    PTSUNNY   65  59  81 N13       29.91S
PONTIAC        CLOUDY    65  58  78 NW16      29.94R
PORT HOPE        N/A     64  58  80 N8G22     29.92R
PORT HURON     CLOUDY    64  59  82 N9        29.92R
TRI CITIES     CLOUDY    65  57  75 N12       29.99R
YPSILANTI      CLOUDY    69  60  73 NW12      29.95R
$$
MIZ043>046-050>051-056>058-064>065-071>073-077>080-241600-
SOUTHWEST LOWER MICHIGAN

CITY           SKY/WX    TMP DP  RH WIND       PRES   REMARKS
BATTLE CREEK   CLOUDY    67  57  70 N15       30.00R
BENTON HARBOR  CLOUDY    68  57  68 VRB6      30.00R
BIG RAPIDS     CLOUDY    66  53  62 N9G21     30.01R
COLDWATER      CLOUDY    67  58  74 N7        29.98S
HOLLAND        MOSUNNY   70  55  59 NE9       30.01S
GRAND RAPIDS   PTSUNNY   68  56  65 N13       30.00S
KALAMAZOO      CLOUDY    68  54  60 NE12      29.99S
MARSHALL       CLOUDY    65  57  76 N6        29.99R
MOUNT PLEASANT CLOUDY    68  53  58 N10       30.00R
MUSKEGON       MOSUNNY   69  54  58 N12       30.02S
STURGIS        CLOUDY    65  59  81 N12       29.98R
$$
MIZ016>042-241600-
NORTHERN LOWER MICHIGAN

CITY           SKY/WX    TMP DP  RH WIND       PRES   REMARKS
ALPENA         MOSUNNY   69  57  65 N14G22    30.00S
BEAVER ISLAND  SUNNY     67  53  61 N12G17    30.06S
BELLAIRE       SUNNY     68  51  54 N7        30.03R
CADILLAC       MOSUNNY   68  53  58 N7        30.02S
CHARLEVOIX     SUNNY     66  56  68 N12G17    30.07S
GAYLORD        MOSUNNY   66  52  60 NE8       30.03S
HOUGHTON LAKE  MOSUNNY   65  54  67 N12       30.02R
MANISTEE       MOSUNNY   70  56  61 N10       30.03S
OSCODA         CLOUDY    65  58  77 N9G18     29.96R
PELLSTON       SUNNY     70  51  51 N13G20    30.04S
TRAVERSE CITY  MOSUNNY   69  54  58 N13G20    30.03R
LUDINGTON      CLOUDY    68  57  68 N8        30.03S
$$
MIZ007>008-015-241600-
EASTERN UPPER MICHIGAN

CITY           SKY/WX    TMP DP  RH WIND       PRES   REMARKS
KINROSS        SUNNY     66  52  60 N9        30.05S
MACKINAC ISLAN SUNNY     67  53  61 N8        30.04R
NEWBERRY       SUNNY     64  55  73 N7        30.08R
S. S. MARIE    SUNNY     70  48  45 N10       30.04S
$$
MIZ004>006-011>014-085-241600-
CENTRAL UPPER MICHIGAN

CITY           SKY/WX    TMP DP  RH WIND       PRES   REMARKS
MANISTIQUE     SUNNY     67  54  62 N12G20    30.07S
ESCANABA       SUNNY     68  54  60 N8        30.08F
MENOMINEE      SUNNY     67  53  61 VRB3      30.10S
SAWYER-GWINN   SUNNY     64  54  68 N5        30.11S
$$
MIZ001>003-009>011-084-241600-
WESTERN UPPER MICHIGAN

CITY           SKY/WX    TMP DP  RH WIND       PRES   REMARKS
IRON MOUNTAIN  SUNNY     66  51  58 NE5       30.10S
HOUGHTON       SUNNY     66  52  60 NW10      30.10S
COPPER HARBOR    N/A     56  51  84 N13       30.08F
IRONWOOD       SUNNY     66  53  63 VRB5      30.12S
$$

ABBREVIATIONS USED IN REMARKS
   TC - TEMPERATURE IN CELSIUS
  WCI - WIND CHILL INDEX
   HX - HEAT INDEX
  VSB - VISIBILITY




USA.gov is the U.S. government's official web portal to all federal, state and local government web resources and services.